This demonstration page uses our WeatherBlox Daily Observations layout. Learn more.

Left ArrowRight Arrow

Hourly Observations for February 14, 2021

Temp ( °F °C ) Dew Point ( °F °C ) Humidity (%) Winds ( mph kmh ) Pressure ( in mb ) Visibility ( mi km ) Precip ( " mm )
12:15 am 00:15 Cloudy with Light Snow -1 -18.1 -5 -20.8 80 80 NNE 13 20 30.70 1040 2 3 N/A
12:35 am 00:35 Cloudy with Light Snow -1 -18.2 -5 -20.8 80 80 NNE 13 20 30.71 1040 1 2 N/A
12:55 am 00:55 Cloudy with Light Snow -1 -18.3 -6 -21 80 80 NNE 13 20 30.72 1040 2 3 N/A
1:15 am 01:15 Cloudy with Light Snow -1 -18.5 -6 -21.1 80 80 NNE 14 22 30.73 1041 2 2 N/A
1:35 am 01:35 Cloudy -2 -18.7 -6 -21.3 80 80 N 13 20 30.74 1041 N/A N/A
1:55 am 01:55 Cloudy -2 -18.9 -7 -21.6 79 79 NNE 15 24 30.74 1041 N/A N/A
2:15 am 02:15 Cloudy -2 -19 -7 -21.7 79 79 NNE 12 19 30.75 1041 N/A N/A
2:35 am 02:35 Cloudy -2 -19 -7 -21.6 80 80 N 12 19 30.75 1041 N/A N/A
2:55 am 02:55 Cloudy -2 -19.1 -7 -21.7 80 80 NNE 12 19 30.76 1042 N/A N/A
3:15 am 03:15 Cloudy -3 -19.3 -8 -22 79 79 NNE 15 24 30.77 1042 N/A N/A
3:35 am 03:35 Cloudy -3 -19.5 -8 -22.1 80 80 NNE 12 19 30.76 1042 N/A N/A
3:55 am 03:55 Cloudy -3 -19.5 -8 -22.1 80 80 NNE 12 19 30.76 1042 N/A N/A
4:15 am 04:15 Cloudy -3 -19.5 -8 -22.2 79 79 NNE 13 20 30.76 1042 N/A N/A
4:35 am 04:35 Cloudy -3 -19.6 -8 -22.3 79 79 NNE 13 20 30.77 1042 N/A N/A
4:55 am 04:55 Cloudy -3 -19.7 -9 -22.5 79 79 NNE 10 17 30.76 1042 N/A N/A
5:15 am 05:15 Cloudy -5 -20.5 -10 -23.3 78 78 N 8 13 30.78 1042 N/A N/A
5:35 am 05:35 undefined -5 -20.8 -10 -23.5 79 79 N 6 9 30.79 1043 N/A N/A
5:55 am 05:55 Partly Cloudy -5 -20.5 -10 -23.1 80 80 N 5 7 30.79 1043 N/A N/A
6:15 am 06:15 Partly Cloudy -5 -20.5 -9 -23 81 81 N 5 7 30.79 1043 N/A N/A
6:35 am 06:35 Cloudy -5 -20.3 -9 -23 79 79 N 5 7 30.80 1043 N/A N/A
6:55 am 06:55 Cloudy -4 -20.1 -9 -23 78 78 NNW 6 9 30.81 1043 N/A N/A
7:15 am 07:15 Cloudy -4 -20.1 -9 -22.7 80 80 N 5 7 30.82 1044 N/A N/A
7:35 am 07:35 Cloudy -4 -19.8 -9 -22.5 79 79 N 8 13 30.81 1043 N/A N/A
7:55 am 07:55 Cloudy -4 -19.8 -9 -22.7 78 78 N 10 17 30.81 1043 N/A N/A
8:15 am 08:15 Cloudy -4 -19.8 -9 -22.7 78 78 N 9 15 30.82 1044 N/A N/A
8:35 am 08:35 Cloudy -4 -19.8 -9 -22.8 77 77 NNE 13 20 30.82 1044 N/A N/A
8:55 am 08:55 Cloudy -4 -19.8 -9 -22.8 77 77 NNE 12 19 30.83 1044 N/A N/A
9:15 am 09:15 Cloudy -4 -20 -10 -23.4 74 74 NNE 14 22 30.83 1044 N/A N/A
9:35 am 09:35 Cloudy -3 -19.7 -10 -23.2 74 74 NNE 15 24 30.83 1044 N/A N/A
9:55 am 09:55 Cloudy -4 -19.8 -10 -23.6 72 72 NNE 14 22 30.84 1045 N/A N/A
10:15 am 10:15 Cloudy -3 -19.7 -10 -23.5 72 72 NNE 14 22 30.83 1044 N/A N/A
10:35 am 10:35 Cloudy -3 -19.7 -11 -23.8 70 70 NNE 13 20 30.84 1044 N/A N/A
10:55 am 10:55 Cloudy -3 -19.6 -11 -24.1 68 68 NNE 12 19 30.84 1044 N/A N/A
11:15 am 11:15 Cloudy -3 -19.6 -12 -24.3 66 66 NNE 13 20 30.84 1044 N/A N/A
11:35 am 11:35 Cloudy -3 -19.6 -12 -24.2 67 67 NNE 12 19 30.84 1044 N/A N/A
11:55 am 11:55 Cloudy -3 -19.4 -11 -23.9 68 68 N 13 20 30.82 1044 N/A N/A
12:15 pm 12:15 Cloudy -3 -19.3 -11 -23.7 68 68 N 16 26 30.81 1043 N/A N/A
12:35 pm 12:35 Cloudy -3 -19.6 -12 -24.5 65 65 N 15 24 30.81 1043 N/A N/A
12:55 pm 12:55 Cloudy -3 -19.7 -12 -24.3 67 67 NNE 16 26 30.81 1043 N/A N/A
1:15 pm 13:15 Cloudy -3 -19.7 -12 -24.5 66 66 N 14 22 30.80 1043 N/A N/A
1:35 pm 13:35 Cloudy -3 -19.7 -12 -24.3 67 67 NNE 13 20 30.79 1043 N/A N/A
1:55 pm 13:55 Cloudy -4 -19.9 -12 -24.4 68 68 N 14 22 30.79 1043 N/A N/A
2:15 pm 14:15 Mostly Cloudy -3 -19.7 -13 -24.8 64 64 NNE 14 22 30.79 1043 N/A N/A
2:35 pm 14:35 Partly Cloudy -4 -19.9 -13 -24.9 65 65 NNE 13 20 30.78 1042 N/A N/A
2:55 pm 14:55 Partly Cloudy -4 -20 -12 -24.6 67 67 NNE 15 24 30.78 1042 N/A N/A
3:15 pm 15:15 Partly Cloudy -4 -20.1 -13 -25.2 64 64 N 14 22 30.78 1042 N/A N/A
3:35 pm 15:35 Sunny -4 -20.2 -13 -25.1 65 65 NNE 13 20 30.78 1042 10 16 N/A
3:55 pm 15:55 Partly Cloudy -5 -20.5 -13 -25.2 66 66 NNE 14 22 30.78 1042 10 16 N/A
4:15 pm 16:15 Sunny -5 -20.5 -14 -25.6 64 64 NNE 13 20 30.78 1042 10 16 N/A
4:35 pm 16:35 Sunny -6 -21.1 -15 -26 65 65 NNE 13 20 30.80 1043 10 16 N/A
4:55 pm 16:55 Sunny -7 -21.6 -15 -26.1 67 67 NNE 8 13 30.79 1043 10 16 N/A
5:15 pm 17:15 Sunny -7 -21.6 -15 -26.1 67 67 NNE 9 15 30.79 1043 10 16 N/A
5:35 pm 17:35 Partly Cloudy -7 -21.5 -15 -26.1 67 67 NNE 9 15 30.79 1043 10 16 N/A
5:55 pm 17:55 Cloudy -7 -21.5 -15 -26.1 67 67 NNE 10 17 30.79 1043 10 16 N/A
6:15 pm 18:15 Cloudy -7 -21.5 -15 -26.1 67 67 NNE 8 13 30.79 1043 10 16 N/A
6:35 pm 18:35 Cloudy -6 -21.3 -15 -26 66 66 NNE 9 15 30.79 1043 10 16 N/A
6:55 pm 18:55 Cloudy with Light Snow -7 -21.5 -14 -25.6 70 70 NNE 8 13 30.79 1043 4 6 N/A
7:15 pm 19:15 Cloudy with Light Snow -7 -21.5 -13 -25.1 73 73 NNE 8 13 30.80 1043 3 5 N/A
7:35 pm 19:35 Cloudy -7 -21.7 -13 -25.1 74 74 NE 8 13 30.81 1043 7 11 N/A
7:55 pm 19:55 Cloudy -7 -21.8 -13 -25.2 74 74 NNE 8 13 30.81 1043 10 16 N/A
8:15 pm 20:15 Cloudy with Light Snow -7 -21.9 -14 -25.3 74 74 NNE 7 11 30.81 1043 5 8 N/A
8:35 pm 20:35 Cloudy -8 -22.2 -14 -25.5 75 75 NNE 7 11 30.81 1043 7 11 N/A
8:55 pm 20:55 Cloudy -9 -22.6 -14 -25.7 76 76 NE 7 11 30.81 1043 7 11 N/A
9:15 pm 21:15 Mostly Cloudy -9 -22.5 -14 -25.8 75 75 NNE 9 15 30.82 1044 10 16 N/A
9:35 pm 21:35 Partly Cloudy -9 -22.5 -14 -25.7 75 75 NNE 7 11 30.81 1043 10 16 N/A
9:55 pm 21:55 Cloudy -9 -22.5 -14 -25.7 75 75 NNE 9 15 30.81 1043 10 16 N/A
10:15 pm 22:15 Partly Cloudy -9 -23 -15 -26.2 75 75 NNE 8 13 30.81 1043 10 16 N/A
10:35 pm 22:35 Clear -12 -24.4 -18 -27.6 75 75 NNE 6 9 30.83 1044 10 16 N/A
10:55 pm 22:55 Clear -13 -25.2 -19 -28.3 75 75 NNE 5 7 30.83 1044 10 16 N/A
11:15 pm 23:15 Clear -15 -26 -20 -29 76 76 NNE 6 9 30.85 1045 10 16 N/A
11:35 pm 23:35 Clear -16 -26.5 -21 -29.4 77 77 NNE 5 7 30.84 1044 10 16 N/A
11:55 pm 23:55 Clear -16 -26.5 -21 -29.2 78 78 N 5 7 30.85 1045 10 16 N/A

Powered by AerisWeather